Weather History for Monument Pass, CO

Change the Weather History Date:

Wednesday, January 4, 2012

  Actual Average (KAPA) Record (KAPA)
Temperature  
Mean Temperature 36 °F -  
Max Temperature 53 °F 43 °F 68 °F (2001)
Min Temperature 19 °F 20 °F 2 °F (2014)
Degree Days  
Heating Degree Days 29    
Moisture  
Dew Point 13 °F    
Average Humidity 43    
Maximum Humidity 74    
Minimum Humidity 14    
Precipitation  
Precipitation 0.00 in - - ()
Sea Level Pressure  
Sea Level Pressure 30.39 in    
Wind  
Wind Speed 7 mph (SW)    
Max Wind Speed 13 mph    
Max Gust Speed -    
Visibility 10 miles    
Events      
Averages and records for this station are not official NWS values.
T = Trace of Precipitation, MM = Missing Value Source: NWS Daily Summary

Daily Weather History Graph

Daily Weather History Graph

Search for Another Location

Airport:

Trip Planner

Search our weather history database for the weather conditions in past years. The results will help you decide how hot, cold, wet, or windy it might be!

Date:

Astronomy

Jan. 04, 2012 Rise Set
Actual Time 7:18 AM MST 4:48 PM MST
Civil Twilight 6:48 AM MST 5:18 PM MST
Nautical Twilight 6:15 AM MST 5:51 PM MST
Astronomical Twilight 5:42 AM MST 6:24 PM MST
Moon 1:12 PM MST (1/4) 3:09 AM MST (1/4)
Length of Visible Light 10h 30m
Length of Day
9h 30m
Waxing Gibbous, 81% of the Moon is Illuminated
Jan 4
Waxing Gibbous
Jan 9
Full
Jan 16
Last Quarter
Jan 23
New
Jan 30
First Quarter

Hourly Weather History & Observations

Time (MST) Temp. Windchill Dew Point Humidity Pressure Visibility Wind Dir Wind Speed Gust Speed Precip Events Conditions
12:17 AM 21.2 °F 14.9 °F 12.2 °F 68% 30.39 in 10.0 mi WSW 4.6 mph - N/A   Clear
12:39 AM 23.0 °F 18.4 °F 12.2 °F 63% 30.39 in 10.0 mi WSW 3.5 mph - N/A   Clear
12:58 AM 23.0 °F 15.8 °F 12.2 °F 63% 30.39 in 10.0 mi WSW 5.8 mph - N/A   Clear
1:19 AM 21.2 °F 13.6 °F 12.2 °F 68% 30.39 in 10.0 mi SW 5.8 mph - N/A   Clear
1:38 AM 21.2 °F 13.6 °F 12.2 °F 68% 30.39 in 10.0 mi SW 5.8 mph - N/A   Clear
1:58 AM 19.4 °F 12.8 °F 12.2 °F 74% 30.39 in 10.0 mi SW 4.6 mph - N/A   Clear
2:18 AM 19.4 °F 10.4 °F 12.2 °F 74% 30.39 in 10.0 mi SW 6.9 mph - N/A   Clear
2:59 AM 19.4 °F 9.5 °F 12.2 °F 74% 30.39 in 10.0 mi South 8.1 mph - N/A   Clear
3:39 AM 21.2 °F 10.9 °F 12.2 °F 68% 30.38 in 10.0 mi SSW 9.2 mph - N/A   Clear
3:59 AM 23.0 °F 13.1 °F 12.2 °F 63% 30.39 in 10.0 mi SSW 9.2 mph - N/A   Clear
4:19 AM 21.2 °F 10.9 °F 10.4 °F 63% 30.38 in 10.0 mi SSW 9.2 mph - N/A   Clear
4:39 AM 23.0 °F 11.7 °F 12.2 °F 63% 30.38 in 10.0 mi SSW 11.5 mph - N/A   Clear
4:58 AM 26.6 °F 16.8 °F 12.2 °F 55% 30.38 in 10.0 mi SSW 10.4 mph - N/A   Clear
5:18 AM 28.4 °F 19.7 °F 12.2 °F 51% 30.39 in 10.0 mi SSW 9.2 mph - N/A   Clear
5:39 AM 26.6 °F 17.5 °F 12.2 °F 55% 30.39 in 10.0 mi SSW 9.2 mph - N/A   Clear
5:59 AM 26.6 °F 18.2 °F 12.2 °F 55% 30.39 in 10.0 mi SSW 8.1 mph - N/A   Clear
6:39 AM 30.2 °F 20.2 °F 10.4 °F 44% 30.40 in 10.0 mi SW 12.7 mph - N/A   Clear
6:59 AM 28.4 °F 19.7 °F 10.4 °F 47% 30.40 in 10.0 mi SSW 9.2 mph - N/A   Clear
7:19 AM 28.4 °F 19.7 °F 8.6 °F 43% 30.41 in 10.0 mi SSW 9.2 mph - N/A   Clear
7:39 AM 28.4 °F 19.7 °F 8.6 °F 43% 30.41 in 10.0 mi SSW 9.2 mph - N/A   Clear
7:58 AM 28.4 °F 18.5 °F 6.8 °F 40% 30.41 in 10.0 mi SW 11.5 mph - N/A   Clear
8:19 AM 30.2 °F 20.8 °F 8.6 °F 40% 30.42 in 10.0 mi SW 11.5 mph - N/A   Clear
8:39 AM 33.8 °F 25.3 °F 5.0 °F 30% 30.42 in 10.0 mi SW 11.5 mph - N/A   Clear
8:59 AM 32.0 °F 24.2 °F 10.4 °F 41% 30.43 in 10.0 mi SW 9.2 mph - N/A   Clear
9:19 AM 35.6 °F 29.9 °F 12.2 °F 38% 30.43 in 10.0 mi SSW 6.9 mph - N/A   Clear
9:39 AM 37.4 °F 32.1 °F 14.0 °F 38% 30.43 in 10.0 mi SSW 6.9 mph - N/A   Clear
9:58 AM 39.2 °F 35.0 °F 15.8 °F 39% 30.42 in 10.0 mi SSW 5.8 mph - N/A   Clear
10:19 AM 42.8 °F 37.5 °F 10.4 °F 27% 30.42 in 10.0 mi SSW 9.2 mph - N/A   Clear
10:39 AM 44.6 °F 40.2 °F 14.0 °F 29% 30.42 in 10.0 mi SW 8.1 mph - N/A   Clear
10:59 AM 46.4 °F 42.9 °F 14.0 °F 27% 30.42 in 10.0 mi SW 6.9 mph - N/A   Clear
11:18 AM 50.0 °F - 15.8 °F 26% 30.41 in 10.0 mi WSW 5.8 mph - N/A   Clear
11:39 AM 51.8 °F - 14.0 °F 22% 30.39 in 10.0 mi SW 5.8 mph - N/A   Clear
11:59 AM 48.2 °F - 17.6 °F 30% 30.39 in 10.0 mi WSW 5.8 mph - N/A   Clear
12:19 PM 51.8 °F - 8.6 °F 18% 30.37 in 10.0 mi SW 5.8 mph - N/A   Clear
12:39 PM 51.8 °F - 12.2 °F 21% 30.37 in 10.0 mi SW 5.8 mph - N/A   Clear
12:59 PM 53.6 °F - 5.0 °F 14% 30.36 in 10.0 mi SW 4.6 mph - N/A   Clear
1:19 PM 51.8 °F - 12.2 °F 21% 30.35 in 10.0 mi SSW 3.5 mph - N/A   Clear
1:39 PM 51.8 °F - 17.6 °F 26% 30.35 in 10.0 mi SSW 3.5 mph - N/A   Clear
1:59 PM 51.8 °F - 15.8 °F 24% 30.35 in 10.0 mi SSW 4.6 mph - N/A   Clear
2:19 PM 50.0 °F - 14.0 °F 24% 30.35 in 10.0 mi SW 3.5 mph - N/A   Clear
2:39 PM 50.0 °F - 19.4 °F 30% 30.34 in 10.0 mi Calm Calm - N/A   Clear
2:58 PM 46.4 °F 44.3 °F 23.0 °F 40% 30.34 in 10.0 mi SSW 4.6 mph - N/A   Clear
3:19 PM 46.4 °F 44.3 °F 17.6 °F 32% 30.34 in 10.0 mi SSW 4.6 mph - N/A   Clear
3:39 PM 44.6 °F 41.4 °F 21.2 °F 39% 30.34 in 10.0 mi SSW 5.8 mph - N/A   Clear
3:59 PM 42.8 °F 38.0 °F 21.2 °F 42% 30.34 in 10.0 mi SSW 8.1 mph - N/A   Clear
4:19 PM 41.0 °F 36.4 °F 19.4 °F 42% 30.35 in 10.0 mi SSW 6.9 mph - N/A   Clear
4:39 PM 41.0 °F 37.1 °F 17.6 °F 39% 30.36 in 10.0 mi SSW 5.8 mph - N/A   Clear
4:57 PM 37.4 °F 32.8 °F 19.4 °F 48% 30.36 in 10.0 mi SSW 5.8 mph - N/A   Clear
5:19 PM 37.4 °F 32.1 °F 15.8 °F 41% 30.37 in 10.0 mi SSW 6.9 mph - N/A   Clear
5:39 PM 33.8 °F 28.6 °F 17.6 °F 52% 30.37 in 10.0 mi SSE 5.8 mph - N/A   Clear
5:59 PM 37.4 °F - 14.0 °F 38% 30.37 in 10.0 mi Calm Calm - N/A   Clear
6:19 PM 33.8 °F - 15.8 °F 48% 30.38 in 10.0 mi Calm Calm - N/A   Clear
6:39 PM 32.0 °F 28.7 °F 17.6 °F 55% 30.39 in 10.0 mi West 3.5 mph - N/A   Clear
6:59 PM 33.8 °F 27.7 °F 14.0 °F 44% 30.39 in 10.0 mi WSW 6.9 mph - N/A   Clear
7:19 PM 33.8 °F 29.6 °F 14.0 °F 44% 30.39 in 10.0 mi West 4.6 mph - N/A   Clear
7:39 PM 32.0 °F 26.4 °F 12.2 °F 44% 30.39 in 10.0 mi West 5.8 mph - N/A   Clear
7:58 PM 33.8 °F 28.6 °F 14.0 °F 44% 30.39 in 10.0 mi West 5.8 mph - N/A   Clear
8:19 PM 37.4 °F 33.8 °F 10.4 °F 33% 30.39 in 10.0 mi West 4.6 mph - N/A   Clear
8:39 PM 33.8 °F 30.8 °F 12.2 °F 41% 30.39 in 10.0 mi WSW 3.5 mph - N/A   Clear
8:58 PM 32.0 °F 25.6 °F 14.0 °F 48% 30.40 in 10.0 mi SW 6.9 mph - N/A   Clear
9:19 PM 32.0 °F 25.6 °F 14.0 °F 48% 30.40 in 10.0 mi SW 6.9 mph - N/A   Clear
9:39 PM 32.0 °F 24.2 °F 14.0 °F 48% 30.40 in 10.0 mi SW 9.2 mph - N/A   Clear
9:59 PM 35.6 °F 28.6 °F 12.2 °F 38% 30.39 in 10.0 mi WSW 9.2 mph - N/A   Clear
10:19 PM 33.8 °F 25.8 °F 12.2 °F 41% 30.38 in 10.0 mi WSW 10.4 mph - N/A   Clear
10:38 PM 32.0 °F 24.2 °F 14.0 °F 48% 30.37 in 10.0 mi West 9.2 mph - N/A   Clear
10:59 PM 37.4 °F 30.8 °F 12.2 °F 36% 30.37 in 10.0 mi WSW 9.2 mph - N/A   Clear
11:19 PM 33.8 °F 25.8 °F 14.0 °F 44% 30.36 in 10.0 mi WSW 10.4 mph - N/A   Clear
11:38 PM 37.4 °F 30.3 °F 12.2 °F 36% 30.36 in 10.0 mi SW 10.4 mph - N/A   Clear
11:59 PM 39.2 °F 32.5 °F 12.2 °F 33% 30.35 in 10.0 mi SW 10.4 mph - N/A   Clear